EN

Hourly Weather Garagoa

Today, 26 January, Tuesday

Time Temperature Precipitation Wind Pressure Humidity
00:00 +15°C° 0 mm 0 mps 621 mmHg 93%
01:00 +15°C° 0 mm 0 mps 621 mmHg 93%
02:00 +15°C° 0 mm 0 mps 620 mmHg 92%
03:00 +15°C° 0 mm 0 mps 620 mmHg 92%
04:00 +14°C° 0 mm 0 mps 620 mmHg 91%
05:00 +15°C° 0 mm 1 mps 620 mmHg 90%
06:00 +15°C° 0 mm 1 mps 621 mmHg 89%
07:00 +15°C° 0 mm 1 mps 621 mmHg 88%
08:00 +19°C° 0 mm 1 mps 622 mmHg 77%
09:00 +22°C° 0 mm 1 mps 623 mmHg 66%
10:00 +24°C° 0 mm 2 mps 624 mmHg 55%
11:00 +25°C° 0 mm 2 mps 624 mmHg 54%
12:00 +26°C° 0 mm 2 mps 623 mmHg 53%
13:00 +26°C° 0 mm 3 mps 623 mmHg 51%
14:00 +26°C° 0.1 mm 2 mps 622 mmHg 55%
15:00 +25°C° 0.1 mm 2 mps 621 mmHg 59%
16:00 +24°C° 0.1 mm 2 mps 620 mmHg 63%
17:00 +21°C° 0.1 mm 2 mps 620 mmHg 73%
18:00 +20°C° 0.1 mm 1 mps 620 mmHg 83%
19:00 +16°C° 0.1 mm 0 mps 620 mmHg 93%
20:00 +16°C° 0 mm 0 mps 620 mmHg 93%
21:00 +16°C° 0 mm 1 mps 621 mmHg 94%
22:00 +16°C° 0 mm 1 mps 621 mmHg 94%
23:00 +16°C° 0 mm 1 mps 621 mmHg 93%

Tomorrow, 27 January, Wednesday

Time Temperature Precipitation Wind Pressure Humidity
00:00 +16°C° 0 mm 1 mps 620 mmHg 93%
01:00 +15°C° 0 mm 1 mps 620 mmHg 93%
02:00 +15°C° 0 mm 1 mps 620 mmHg 92%
03:00 +15°C° 0 mm 1 mps 620 mmHg 92%
04:00 +14°C° 0 mm 1 mps 620 mmHg 92%
05:00 +15°C° 0 mm 1 mps 620 mmHg 90%
06:00 +15°C° 0 mm 1 mps 621 mmHg 89%
07:00 +16°C° 0 mm 1 mps 621 mmHg 87%
08:00 +19°C° 0 mm 1 mps 622 mmHg 77%
09:00 +22°C° 0 mm 1 mps 623 mmHg 66%
10:00 +24°C° 0 mm 1 mps 624 mmHg 56%
11:00 +25°C° 0 mm 2 mps 624 mmHg 54%
12:00 +26°C° 0 mm 2 mps 623 mmHg 52%
13:00 +26°C° 0 mm 3 mps 623 mmHg 50%
14:00 +26°C° 0 mm 2 mps 622 mmHg 53%
15:00 +25°C° 0 mm 2 mps 621 mmHg 56%
16:00 +24°C° 0 mm 2 mps 621 mmHg 60%
17:00 +22°C° 0 mm 1 mps 620 mmHg 69%
18:00 +20°C° 0 mm 1 mps 620 mmHg 79%
19:00 +16°C° 0 mm 0 mps 620 mmHg 89%
20:00 +16°C° 0 mm 0 mps 620 mmHg 89%
21:00 +16°C° 0 mm 1 mps 621 mmHg 90%
22:00 +16°C° 0 mm 1 mps 621 mmHg 91%
23:00 +16°C° 0 mm 1 mps 621 mmHg 91%

Day after tomorrow, 28 January, Thursday

Time Temperature Precipitation Wind Pressure Humidity
00:00 +15°C° 0 mm 1 mps 620 mmHg 91%
01:00 +15°C° 0 mm 1 mps 620 mmHg 91%
02:00 +15°C° 0 mm 1 mps 620 mmHg 90%
03:00 +14°C° 0 mm 1 mps 620 mmHg 89%
04:00 +14°C° 0 mm 1 mps 619 mmHg 88%
05:00 +15°C° 0 mm 1 mps 620 mmHg 86%
06:00 +15°C° 0 mm 1 mps 620 mmHg 84%
07:00 +15°C° 0 mm 1 mps 621 mmHg 81%
08:00 +20°C° 0 mm 1 mps 622 mmHg 70%
09:00 +23°C° 0 mm 1 mps 624 mmHg 59%
10:00 +26°C° 0 mm 1 mps 625 mmHg 47%
11:00 +27°C° 0 mm 2 mps 624 mmHg 47%
12:00 +27°C° 0 mm 2 mps 624 mmHg 47%
13:00 +27°C° 0 mm 3 mps 623 mmHg 47%
14:00 +27°C° 0 mm 2 mps 622 mmHg 50%
15:00 +26°C° 0 mm 2 mps 622 mmHg 54%
16:00 +25°C° 0 mm 2 mps 621 mmHg 57%
17:00 +23°C° 0 mm 1 mps 620 mmHg 68%
18:00 +21°C° 0 mm 1 mps 620 mmHg 78%
19:00 +17°C° 0 mm 0 mps 620 mmHg 88%
20:00 +17°C° 0 mm 0 mps 620 mmHg 89%
21:00 +16°C° 0 mm 0 mps 620 mmHg 91%
22:00 +18°C° 0 mm 1 mps 621 mmHg 92%
23:00 +18°C° 0 mm 1 mps 620 mmHg 92%

29 January, Friday

Time Temperature Precipitation Wind Pressure Humidity
00:00 +15°C° 0 mm 0 mps 620 mmHg 92%
01:00 +15°C° 0 mm 0 mps 620 mmHg 91%
02:00 +16°C° 0 mm 0 mps 620 mmHg 89%
03:00 +16°C° 0 mm 0 mps 620 mmHg 87%
04:00 +16°C° 0 mm 0 mps 620 mmHg 85%
05:00 +16°C° 0 mm 0 mps 620 mmHg 85%
06:00 +17°C° 0 mm 0 mps 621 mmHg 84%
07:00 +17°C° 0 mm 0 mps 621 mmHg 83%
08:00 +18°C° 0 mm 0 mps 622 mmHg 76%
09:00 +22°C° 0 mm 1 mps 623 mmHg 70%
10:00 +24°C° 0 mm 1 mps 623 mmHg 64%
11:00 +25°C° 0 mm 2 mps 623 mmHg 59%
12:00 +26°C° 0 mm 2 mps 623 mmHg 54%
13:00 +27°C° 0 mm 2 mps 623 mmHg 50%
14:00 +26°C° 0 mm 2 mps 622 mmHg 50%
15:00 +26°C° 0 mm 2 mps 621 mmHg 51%
16:00 +25°C° 0 mm 2 mps 620 mmHg 52%
17:00 +23°C° 0 mm 2 mps 620 mmHg 63%
18:00 +21°C° 0 mm 1 mps 619 mmHg 74%
19:00 +17°C° 0 mm 0 mps 619 mmHg 85%
20:00 +16°C° 0 mm 0 mps 619 mmHg 86%
21:00 +18°C° 0 mm 1 mps 620 mmHg 87%
22:00 +18°C° 0 mm 1 mps 620 mmHg 88%
23:00 +16°C° 0 mm 1 mps 620 mmHg 88%

30 January, Saturday

Time Temperature Precipitation Wind Pressure Humidity
00:00 +16°C° 0 mm 1 mps 620 mmHg 89%
01:00 +16°C° 0 mm 1 mps 620 mmHg 90%
02:00 +15°C° 0 mm 1 mps 619 mmHg 89%
03:00 +15°C° 0 mm 1 mps 619 mmHg 89%
04:00 +15°C° 0 mm 1 mps 619 mmHg 88%
05:00 +15°C° 0 mm 1 mps 620 mmHg 87%
06:00 +16°C° 0 mm 1 mps 620 mmHg 85%
07:00 +16°C° 0 mm 1 mps 621 mmHg 83%
08:00 +20°C° 0 mm 1 mps 622 mmHg 72%
09:00 +22°C° 0 mm 1 mps 623 mmHg 61%
10:00 +25°C° 0 mm 2 mps 624 mmHg 50%
11:00 +26°C° 0 mm 2 mps 624 mmHg 46%
12:00 +26°C° 0 mm 2 mps 623 mmHg 41%
13:00 +27°C° 0 mm 3 mps 623 mmHg 37%
14:00 +27°C° 0 mm 3 mps 622 mmHg 38%
15:00 +26°C° 0 mm 3 mps 622 mmHg 39%
16:00 +25°C° 0 mm 3 mps 621 mmHg 40%
17:00 +23°C° 0 mm 2 mps 620 mmHg 51%
18:00 +20°C° 0 mm 1 mps 620 mmHg 62%
19:00 +15°C° 0 mm 0 mps 619 mmHg 73%
20:00 +15°C° 0 mm 1 mps 619 mmHg 75%
21:00 +15°C° 0 mm 1 mps 620 mmHg 77%
22:00 +14°C° 0 mm 1 mps 620 mmHg 79%
23:00 +14°C° 0 mm 1 mps 620 mmHg 80%

31 January, Sunday

Time Temperature Precipitation Wind Pressure Humidity
00:00 +14°C° 0 mm 1 mps 620 mmHg 80%
01:00 +13°C° 0 mm 1 mps 620 mmHg 81%
02:00 +13°C° 0 mm 1 mps 620 mmHg 82%
03:00 +13°C° 0 mm 1 mps 619 mmHg 82%
04:00 +13°C° 0 mm 1 mps 619 mmHg 83%
05:00 +14°C° 0 mm 1 mps 620 mmHg 80%
06:00 +14°C° 0 mm 1 mps 620 mmHg 77%
07:00 +15°C° 0 mm 1 mps 621 mmHg 74%
08:00 +19°C° 0 mm 1 mps 622 mmHg 64%
09:00 +21°C° 0 mm 2 mps 623 mmHg 54%
10:00 +25°C° 0 mm 2 mps 624 mmHg 44%
11:00 +26°C° 0 mm 2 mps 624 mmHg 42%
12:00 +27°C° 0 mm 3 mps 623 mmHg 39%
13:00 +27°C° 0 mm 3 mps 623 mmHg 37%
14:00 +27°C° 0 mm 3 mps 622 mmHg 40%
15:00 +26°C° 0 mm 3 mps 621 mmHg 43%
16:00 +25°C° 0 mm 2 mps 621 mmHg 45%
17:00 +23°C° 0 mm 2 mps 620 mmHg 57%
18:00 +20°C° 0 mm 1 mps 620 mmHg 69%
19:00 +16°C° 0 mm 0 mps 619 mmHg 81%
20:00 +16°C° 0 mm 0 mps 620 mmHg 82%
21:00 +16°C° 0 mm 1 mps 620 mmHg 83%
22:00 +16°C° 0 mm 1 mps 621 mmHg 84%
23:00 +16°C° 0 mm 1 mps 621 mmHg 85%
Show more

We Need Your Consent

Meteoprog and our Service Providers may store and access personal data such as cookies, device identifiers or other similar technologies on your device and process such data to personalise content and ads, as well as provide social media features and to analyse the traffic.

  • Store and/or access information on your device

    Cookies, device identifiers or other information can be stored or accessed on your device for the purposes indicated above.

  • Personalised ads and content, ad and content measurement, audience insights, and products development

    Ads and content can be personalised based on a profile. More data can be added to better personalise ads and content. Ad and content performance can be measured. Insights about the audience who saw the ads and content can be derived. Such data can be used to develop or improve user’s experience, systems and software.

By clicking ‘I Agree’ you will allow the use of indicated cookies, device identifiers, web beacons or other similar technologies. Your settings can be changed in the browser on your device.

For certain purposes, legitimate interests may be relied on, rather than consent. You can read more about this in our Privacy and Cookie Policy.